Regional Weather Roundup
Issued by NWS Sioux Falls, SD

Home | Current Version | Previous Version | Text Only | Print | Product List | Glossary On
Versions: 1 2 3 4 5 6 7 8 9 10 11 12 13 14 15 16 17 18 19 20 21 22 23 24 25 26 27 28 29 30 31 32 33 34 35 36 37 38 39 40 41 42 43 44 45 46 47 48 49 50
000
ASUS43 KFSD 230010
RWRFSD

WEATHER ROUNDUP FOR SE SOUTH DAKOTA/SW MINNESOTA/NW IOWA
NATIONAL WEATHER SERVICE SIOUX FALLS SD
700 PM CDT FRI AUG 22 2014

NOTE: "FAIR" INDICATES FEW OR NO CLOUDS BELOW 12,000 FEET WITH NO
SIGNIFICANT WEATHER AND OR OBSTRUCTIONS TO VISIBILITY.


SDZ038>040-050-052>070-230100-
SOUTHEAST SOUTH DAKOTA

CITY           SKY/WX    TMP DP  RH WIND       PRES   REMARKS
CHAMBERLAIN    PTSUNNY   78  68  71 E5        29.95F
6HR MIN TEMP:  78; 6HR MAX TEMP:  83;

HURON          PTSUNNY   76  69  79 NE9       29.95F
6HR MIN TEMP:  76; 6HR MAX TEMP:  86;

MADISON        FAIR      81  70  69 E5        29.98F
MITCHELL       PTSUNNY   82  72  71 E5        29.95F
6HR MIN TEMP:  82; 6HR MAX TEMP:  87; 6HR PCP: TRACE;

SIOUX FALLS    PTSUNNY   80  68  66 E10       29.95F
6HR MIN TEMP:  80; 6HR MAX TEMP:  86;

WINNER         FAIR      82  68  62 SE8       29.96F
YANKTON        PTSUNNY   81  73  78 NE7       29.91F
$$

MNZ071-072-080-081-089-090-097-098-230100-
SOUTHWEST MINNESOTA

CITY           SKY/WX    TMP DP  RH WIND       PRES   REMARKS
FAIRMONT       MOSUNNY   73  63  68 N6        29.97R
JACKSON        MOSUNNY   81  68  65 NE8       29.99S
LUVERNE        PTSUNNY   82  68  61 NE6       29.98S
MARSHALL       PTSUNNY   81  68  65 NE6       29.97S
6HR MIN TEMP:  81; 6HR MAX TEMP:  84;

MONTEVIDEO     MOSUNNY   82  70  65 CALM      29.98S
PIPESTONE      PTSUNNY   81  66  61 CALM      30.00S
REDWOOD FALLS  SUNNY     82  69  64 N3        29.97S
TRACY          MOSUNNY   80  72  76 CALM      29.99S
WINDOM         MOSUNNY   81  70  69 NE3       29.99S
WORTHINGTON      N/A     81  70  69 NE6       30.00F
$$

IAZ001>003-012>014-020>022-031-032-NEZ013-014-SDZ071-230100-
NORTHWEST IOWA

CITY           SKY/WX    TMP DP  RH WIND       PRES   REMARKS
CHEROKEE       MOSUNNY   82  75  80 NE5       29.95R
DENISON        CLOUDY    73  73 100 CALM      29.91F
ESTHERVILLE    SUNNY     80  71  74 N8        29.97R
LE MARS        SUNNY     82  73  74 NE8G16    29.95R
ORANGE CITY    MOSUNNY   82  70  65 E7        29.96S
SHELDON        SUNNY     81  73  78 NE7       29.95F
SIOUX CITY     MOSUNNY   86  75  69 E12       29.92S HX  95
6HR MIN TEMP:  86; 6HR MAX TEMP:  91;

SPENCER        SUNNY     83  72  69 NE5       29.96S
6HR MIN TEMP:  77; 6HR MAX TEMP:  84;

STORM LAKE     PTSUNNY   82  79  89 E7        29.96R
$$

ABBREVIATIONS USED IN REMARKS
   TC - TEMPERATURE IN CELSIUS
  WCI - WIND CHILL INDEX
   HX - HEAT INDEX
  VSB - VISIBILITY



USA.gov is the U.S. government's official web portal to all federal, state and local government web resources and services.